Fairfield, OH

1:04 AM EST on February 25, 2017 (GMT -0500)
Butler County Regional

Weather History for KHAO - February, 2013

Change the Weather History Date:

Tuesday, February 26, 2013

  Actual Average (KLUK) Record (KLUK)
Temperature  
Mean Temperature 42 °F -  
Max Temperature 48 °F 44 °F 69 °F (1976)
Min Temperature 35 °F 26 °F 5 °F (1963)
Degree Days  
Heating Degree Days 24    
Moisture  
Dew Point 40 °F    
Average Humidity 89    
Maximum Humidity 100    
Minimum Humidity 57    
Precipitation  
Precipitation 0.64 in - - ()
Sea Level Pressure  
Sea Level Pressure 29.52 in    
Wind  
Wind Speed 9 mph (ESE)    
Max Wind Speed 17 mph    
Max Gust Speed 25 mph    
Visibility 6 miles    
Events Rain    
Averages and records for this station are not official NWS values.
T = Trace of Precipitation, MM = Missing Value Source: NWS Daily Summary

Daily Weather History Graph

Daily Weather History Graph

Search for Another Location

Airport or City:

Trip Planner

Search our weather history database for the weather conditions in past years. The results will help you decide how hot, cold, wet, or windy it might be!

Date:

Astronomy

Feb. 26, 2013 Rise Set
Actual Time 7:14 AM EST 6:27 PM EST
Civil Twilight 6:47 AM EST 6:54 PM EST
Nautical Twilight 6:16 AM EST 7:25 PM EST
Astronomical Twilight 5:45 AM EST 7:56 PM EST
Moon 7:42 PM EST (2/26) 7:17 AM EST (2/26)
Length of Visible Light 12h 06m
Length of Day
11h 12m
Full, 99% of the Moon is Illuminated
Feb 26
Full
Mar 4
Last Quarter
Mar 11
New
Mar 19
First Quarter
Mar 27
Full

Hourly Weather History & Observations

Time (EST) Temp. Windchill Dew Point Humidity Pressure Visibility Wind Dir Wind Speed Gust Speed Precip Events Conditions
12:53 AM 35.1 °F 29.3 °F 25.0 °F 67% 29.91 in 10.0 mi ENE 6.9 mph - N/A   Clear
1:53 AM 37.0 °F 31.0 °F 24.1 °F 59% 29.87 in 10.0 mi East 8.1 mph - N/A   Clear
2:53 AM 37.0 °F 30.4 °F 24.1 °F 59% 29.82 in 10.0 mi East 9.2 mph - N/A   Clear
3:53 AM 37.0 °F 30.4 °F 24.1 °F 59% 29.78 in 10.0 mi ENE 9.2 mph - N/A   Clear
4:53 AM 37.9 °F 30.9 °F 24.1 °F 57% 29.74 in 10.0 mi East 10.4 mph - N/A   Overcast
5:53 AM 37.0 °F 31.0 °F 28.0 °F 70% 29.74 in 6.0 mi East 8.1 mph - 0.01 in Rain Rain
6:53 AM 36.0 °F 29.6 °F 30.0 °F 79% 29.70 in 7.0 mi East 8.1 mph - 0.07 in Rain Light Rain
7:53 AM 36.0 °F 28.5 °F 32.0 °F 86% 29.65 in 8.0 mi East 10.4 mph - 0.04 in Rain Light Rain
8:53 AM 37.9 °F 29.6 °F 33.1 °F 83% 29.64 in 7.0 mi East 13.8 mph - 0.01 in Rain Light Rain
9:53 AM 37.9 °F 28.9 °F 34.0 °F 86% 29.58 in 3.0 mi East 16.1 mph 23.0 mph 0.06 in Rain Rain
10:53 AM 39.9 °F 31.1 °F 37.0 °F 89% 29.54 in 2.5 mi East 17.3 mph - 0.05 in Rain Rain
11:04 AM 39.2 °F 30.5 °F 37.4 °F 93% 29.53 in 7.0 mi East 16.1 mph - 0.00 in Rain Light Rain
11:23 AM 41.0 °F 33.9 °F 37.4 °F 87% 29.52 in 10.0 mi East 12.7 mph - 0.00 in   Overcast
11:53 AM 42.1 °F 36.6 °F 39.0 °F 89% 29.52 in 8.0 mi East 9.2 mph - 0.02 in Rain Light Rain
12:53 PM 45.0 °F 39.7 °F 42.1 °F 90% 29.49 in 5.0 mi East 10.4 mph - 0.03 in Rain Light Rain
1:22 PM 44.6 °F 40.2 °F 42.8 °F 93% 29.45 in 10.0 mi ENE 8.1 mph - 0.01 in Rain Light Rain
1:53 PM 46.0 °F 41.9 °F 43.0 °F 89% 29.45 in 6.0 mi East 8.1 mph - 0.03 in Rain Light Rain
2:24 PM 46.4 °F 42.4 °F 44.6 °F 93% 29.41 in 7.0 mi East 8.1 mph - 0.01 in Rain Light Rain
2:32 PM 46.4 °F 42.9 °F 44.6 °F 93% 29.41 in 4.0 mi ENE 6.9 mph - 0.02 in Rain Light Rain
2:53 PM 46.9 °F - 44.1 °F 90% 29.41 in 2.0 mi East 10.4 mph - 0.03 in Rain Light Rain
3:23 PM 46.4 °F 41.9 °F 44.6 °F 93% 29.40 in 3.0 mi East 9.2 mph - 0.02 in Rain Light Rain
3:42 PM 46.4 °F 41.5 °F 46.4 °F 100% 29.39 in 2.0 mi East 10.4 mph - 0.04 in Rain Light Rain
3:48 PM 46.4 °F 41.5 °F 44.6 °F 93% 29.38 in 3.0 mi East 10.4 mph - 0.04 in Rain Light Rain
3:53 PM 46.9 °F - 45.0 °F 93% 29.39 in 3.0 mi East 10.4 mph - 0.05 in Rain Light Rain
4:00 PM 46.4 °F 41.1 °F 46.4 °F 100% 29.38 in 1.8 mi East 11.5 mph - 0.01 in Rain Light Rain
4:14 PM 46.4 °F 41.1 °F 46.4 °F 100% 29.38 in 2.5 mi East 11.5 mph - 0.02 in Rain Light Rain
4:22 PM 46.4 °F 41.1 °F 46.4 °F 100% 29.38 in 4.0 mi East 11.5 mph - 0.02 in Rain Light Rain
4:46 PM 46.4 °F 40.7 °F 46.4 °F 100% 29.41 in 1.8 mi WSW 12.7 mph 20.7 mph 0.07 in Rain Rain
4:57 PM 48.2 °F - 44.6 °F 87% 29.39 in 2.0 mi East 6.9 mph - 0.01 in Rain Rain
5:00 PM 48.2 °F - 44.6 °F 87% 29.38 in 3.0 mi East 6.9 mph - 0.02 in Rain Rain
5:28 PM 46.4 °F 44.3 °F 46.4 °F 100% 29.40 in 2.5 mi East 4.6 mph - 0.05 in Rain Rain
5:53 PM 46.9 °F - 46.0 °F 97% 29.42 in 2.0 mi Calm Calm - 0.16 in Rain Rain
6:05 PM 46.4 °F 42.9 °F 46.4 °F 100% 29.43 in 2.0 mi SW 6.9 mph - 0.02 in Rain Rain
6:15 PM 46.4 °F 40.7 °F 42.8 °F 87% 29.44 in 6.0 mi West 12.7 mph 25.3 mph 0.02 in Rain Light Rain
6:27 PM 46.4 °F 41.9 °F 42.8 °F 87% 29.45 in 9.0 mi West 9.2 mph 18.4 mph 0.03 in Rain Light Rain
6:53 PM 45.0 °F 42.6 °F 43.0 °F 93% 29.47 in 10.0 mi WSW 4.6 mph - 0.04 in Rain Light Rain
7:53 PM 45.0 °F 41.8 °F - N/A% 29.49 in 10.0 mi SW 5.8 mph - 0.02 in   Overcast
8:53 PM 45.0 °F 41.2 °F 45.0 °F 100% 29.50 in 10.0 mi SW 6.9 mph - N/A   Overcast
9:53 PM 44.1 °F 39.0 °F 44.1 °F 100% 29.52 in 10.0 mi SW 9.2 mph - 0.00 in Rain Light Rain
10:07 PM 44.6 °F 40.2 °F 44.6 °F 100% 29.50 in 10.0 mi WSW 8.1 mph - 0.00 in Rain Light Rain
10:18 PM 44.6 °F 40.7 °F 44.6 °F 100% 29.51 in 10.0 mi SW 6.9 mph - 0.00 in   Overcast
10:38 PM 44.6 °F 41.4 °F 44.6 °F 100% 29.51 in 10.0 mi SSW 5.8 mph - 0.00 in   Overcast
10:53 PM 44.1 °F 38.6 °F 44.1 °F 100% 29.52 in 9.0 mi SW 10.4 mph 16.1 mph 0.00 in Rain Light Rain
11:53 PM 43.0 °F 37.7 °F 43.0 °F 100% 29.53 in 10.0 mi SW 9.2 mph - 0.02 in   Overcast